User: anonymous   Login
Location: Unspecified
(0.0000°N, 0.0000°E)
Time: 00:07:33
(UTC+02:00)
Language:

Cosmos 2263 Rocket - Orbit

View from above orbital plane
View from above orbital plane
View from above satellite
View from above satellite

Ground track
Ground track

The orbit data is extracted from the following two-line orbital elements,

1 22803U 93059B   17114.84897757 +.00000095 +00000-0 +71175-4 0  9999
2 22803 070.9922 001.8337 0015125 109.5062 250.7697 14.16770880220726
Epoch (UTC): 24 April 2017 20:22:31
Eccentricity: 0.0015125
inclination: 70.9922°
perigee height: 825 km
apogee height: 847 km
right ascension of ascending node: 1.8337°
argument of perigee: 109.5062°
revolutions per day: 14.16770880
mean anomaly at epoch: 250.7697°
orbit number at epoch: 22072

The dashed part of the orbit path shows where the satellite is in the earth's shadow,  

DLR